Time,TemperatureF,DewpointF,PressureIn,WindDirection,WindDirectionDegrees,WindSpeedMPH,WindSpeedGustMPH,Humidity,HourlyPrecipIn,Conditions,Clouds,dailyrainin,SolarRadiationWatts/m^2,SoftwareType,DateUTC
2013-04-20 00:01:00,78.3,74.1,30.03,SSE,147,5.0,8.0,87,0.00,,,0.00,0.0,meteohub,2013-04-20 04:01:00,
2013-04-20 00:06:00,78.3,74.5,30.03,SSE,154,3.0,8.0,88,0.00,,,0.00,0.0,meteohub,2013-04-20 04:06:00,
2013-04-20 00:11:00,78.1,74.3,30.02,SSE,150,3.0,8.0,88,0.00,,,0.00,0.0,meteohub,2013-04-20 04:11:00,
2013-04-20 00:16:00,78.1,74.3,30.02,SE,146,5.0,7.0,88,0.00,,,0.00,0.0,meteohub,2013-04-20 04:16:00,
2013-04-20 00:21:00,78.1,74.3,30.02,SE,130,4.0,7.0,88,0.00,,,0.00,0.0,meteohub,2013-04-20 04:21:00,
2013-04-20 00:26:00,78.1,74.3,30.02,SE,142,6.0,8.0,88,0.00,,,0.00,0.0,meteohub,2013-04-20 04:26:00,
2013-04-20 00:31:00,78.1,74.3,30.01,SE,136,6.0,8.0,88,0.00,,,0.00,0.0,meteohub,2013-04-20 04:31:00,
2013-04-20 00:36:00,78.1,74.3,30.01,SE,134,4.0,10.0,88,0.00,,,0.00,0.0,meteohub,2013-04-20 04:36:00,
2013-04-20 00:41:00,77.9,74.1,30.01,SE,146,5.0,10.0,88,0.00,,,0.00,0.0,meteohub,2013-04-20 04:41:00,
2013-04-20 00:47:00,78.1,74.3,30.01,SE,134,3.0,10.0,88,0.00,,,0.00,0.0,meteohub,2013-04-20 04:47:00,
2013-04-20 00:52:00,78.1,74.5,30.01,SE,132,6.0,10.0,89,0.00,,,0.00,0.0,meteohub,2013-04-20 04:52:00,
2013-04-20 00:57:00,78.3,74.5,30.01,ESE,115,7.0,11.0,88,0.00,,,0.00,0.0,meteohub,2013-04-20 04:57:00,
2013-04-20 01:02:00,78.1,73.6,30.01,SSE,147,6.0,15.0,86,0.00,,,0.00,0.0,meteohub,2013-04-20 05:02:00,
2013-04-20 01:07:00,77.7,72.1,30.01,SSE,167,8.0,15.0,83,0.00,,,0.00,0.0,meteohub,2013-04-20 05:07:00,
2013-04-20 01:12:00,77.7,71.8,30.01,SE,143,10.0,16.0,82,0.00,,,0.00,0.0,meteohub,2013-04-20 05:12:00,
2013-04-20 01:17:00,77.5,71.6,30.01,SSE,148,8.0,16.0,82,0.00,,,0.00,0.0,meteohub,2013-04-20 05:17:00,
2013-04-20 01:22:00,77.4,71.4,30.01,South,173,5.0,16.0,82,0.00,,,0.00,0.0,meteohub,2013-04-20 05:22:00,
2013-04-20 01:27:00,77.2,71.6,30.01,SSE,153,4.0,15.0,83,0.00,,,0.00,0.0,meteohub,2013-04-20 05:27:00,
2013-04-20 01:32:00,76.8,71.6,30.01,SSE,162,5.0,15.0,84,0.00,,,0.00,0.0,meteohub,2013-04-20 05:32:00,
2013-04-20 01:37:00,76.6,71.8,30.01,South,173,8.0,11.0,85,0.00,,,0.00,0.0,meteohub,2013-04-20 05:37:00,
2013-04-20 01:42:00,76.5,71.6,30.01,South,169,8.0,11.0,85,0.00,,,0.00,0.0,meteohub,2013-04-20 05:42:00,
2013-04-20 01:47:00,76.5,70.9,30.00,SSE,155,8.0,13.0,83,0.00,,,0.00,0.0,meteohub,2013-04-20 05:47:00,
2013-04-20 01:52:00,76.5,70.5,30.00,SSE,148,4.0,13.0,82,0.00,,,0.00,0.0,meteohub,2013-04-20 05:52:00,
2013-04-20 01:57:00,76.3,70.0,30.00,SE,128,4.0,13.0,81,0.00,,,0.00,0.0,meteohub,2013-04-20 05:57:00,
2013-04-20 02:02:00,76.3,70.0,30.00,SE,134,7.0,13.0,81,0.00,,,0.00,0.0,meteohub,2013-04-20 06:02:00,
2013-04-20 02:07:00,76.1,69.8,29.99,SE,134,5.0,10.0,81,0.00,,,0.00,0.0,meteohub,2013-04-20 06:07:00,
2013-04-20 02:12:00,75.9,69.6,29.99,SE,142,6.0,9.0,81,0.00,,,0.00,0.0,meteohub,2013-04-20 06:12:00,
2013-04-20 02:17:00,75.9,69.6,29.99,SSE,149,3.0,8.0,81,0.00,,,0.00,0.0,meteohub,2013-04-20 06:17:00,
2013-04-20 02:22:00,75.9,70.0,29.99,SSE,167,3.0,8.0,82,0.00,,,0.00,0.0,meteohub,2013-04-20 06:22:00,
2013-04-20 02:27:00,75.9,70.3,29.99,SSE,148,3.0,7.0,83,0.00,,,0.00,0.0,meteohub,2013-04-20 06:27:00,
2013-04-20 02:32:00,75.9,70.3,29.99,SE,134,2.0,9.0,83,0.00,,,0.00,0.0,meteohub,2013-04-20 06:32:00,
2013-04-20 02:37:00,75.9,70.3,29.99,SE,128,4.0,9.0,83,0.00,,,0.00,0.0,meteohub,2013-04-20 06:37:00,
2013-04-20 02:42:00,75.7,70.5,29.99,ESE,123,2.0,7.0,84,0.00,,,0.00,0.0,meteohub,2013-04-20 06:42:00,
2013-04-20 02:47:00,75.7,70.5,29.99,ESE,115,2.0,7.0,84,0.00,,,0.00,0.0,meteohub,2013-04-20 06:47:00,
2013-04-20 02:52:00,75.9,71.1,29.99,ESE,113,2.0,7.0,85,0.00,,,0.00,0.0,meteohub,2013-04-20 06:52:00,
2013-04-20 02:57:00,75.9,71.4,29.99,East,93,7.0,7.0,86,0.00,,,0.00,0.0,meteohub,2013-04-20 06:57:00,
2013-04-20 03:02:00,76.3,72.1,29.99,ESE,118,5.0,7.0,87,0.00,,,0.00,0.0,meteohub,2013-04-20 07:02:00,
2013-04-20 03:07:00,76.3,72.5,29.99,SE,136,2.0,7.0,88,0.00,,,0.00,0.0,meteohub,2013-04-20 07:07:00,
2013-04-20 03:12:00,76.3,72.5,29.99,SE,137,7.0,7.0,88,0.00,,,0.00,0.0,meteohub,2013-04-20 07:12:00,
2013-04-20 03:17:00,76.3,72.5,29.99,SSW,196,7.0,7.0,88,0.00,,,0.00,0.0,meteohub,2013-04-20 07:17:00,
2013-04-20 03:22:00,76.3,72.5,29.99,South,181,5.0,10.0,88,0.00,,,0.00,0.0,meteohub,2013-04-20 07:22:00,
2013-04-20 03:27:00,75.4,72.0,29.98,SSE,161,8.0,10.0,89,0.02,,,0.02,0.0,meteohub,2013-04-20 07:27:00,
2013-04-20 03:32:00,74.8,71.4,29.98,SSE,153,3.0,10.0,89,0.02,,,0.02,0.0,meteohub,2013-04-20 07:32:00,
2013-04-20 03:37:00,74.5,71.4,29.98,SSE,162,3.0,9.0,90,0.02,,,0.02,0.0,meteohub,2013-04-20 07:37:00,
2013-04-20 03:42:00,74.3,71.2,29.99,SSE,167,3.0,9.0,90,0.02,,,0.02,0.0,meteohub,2013-04-20 07:42:00,
2013-04-20 03:47:00,74.3,71.4,29.99,South,184,3.0,8.0,91,0.02,,,0.02,0.0,meteohub,2013-04-20 07:47:00,
2013-04-20 03:52:00,74.5,71.6,29.98,SSE,155,7.0,8.0,91,0.02,,,0.02,0.0,meteohub,2013-04-20 07:52:00,
2013-04-20 03:57:00,74.8,72.3,29.98,ESE,107,4.0,11.0,92,0.02,,,0.02,0.0,meteohub,2013-04-20 07:57:00,
2013-04-20 04:02:00,74.8,72.0,29.98,ESE,117,5.0,11.0,91,0.02,,,0.02,0.0,meteohub,2013-04-20 08:02:00,
2013-04-20 04:07:00,74.1,70.7,29.98,SE,131,6.0,12.0,89,0.02,,,0.02,0.0,meteohub,2013-04-20 08:07:00,
2013-04-20 04:12:00,73.8,70.3,29.98,ESE,119,2.0,13.0,89,0.02,,,0.02,0.0,meteohub,2013-04-20 08:12:00,
2013-04-20 04:17:00,73.8,70.3,29.97,East,98,2.0,13.0,89,0.02,,,0.02,0.0,meteohub,2013-04-20 08:17:00,
2013-04-20 04:22:00,73.6,70.2,29.97,ESE,102,0.0,8.0,89,0.02,,,0.02,0.0,meteohub,2013-04-20 08:22:00,
2013-04-20 04:27:00,73.4,70.3,29.98,ESE,102,0.0,8.0,90,0.00,,,0.02,0.0,meteohub,2013-04-20 08:27:00,
2013-04-20 04:32:00,73.6,70.5,29.98,ESE,107,0.0,5.0,90,0.00,,,0.02,0.0,meteohub,2013-04-20 08:32:00,
2013-04-20 04:37:00,73.6,70.5,29.98,ESE,117,1.0,3.0,90,0.00,,,0.02,0.0,meteohub,2013-04-20 08:37:00,
2013-04-20 04:42:00,73.6,70.7,29.98,ENE,61,0.0,3.0,91,0.00,,,0.02,0.0,meteohub,2013-04-20 08:42:00,
2013-04-20 04:47:00,73.8,70.9,29.99,NE,55,0.0,3.0,91,0.00,,,0.02,0.0,meteohub,2013-04-20 08:47:00,
2013-04-20 04:52:00,73.8,70.9,29.98,NE,55,0.0,3.0,91,0.00,,,0.02,0.0,meteohub,2013-04-20 08:52:00,
2013-04-20 04:57:00,73.8,70.9,29.98,NE,42,0.0,3.0,91,0.00,,,0.02,0.0,meteohub,2013-04-20 08:57:00,
2013-04-20 05:02:00,73.8,71.2,29.98,West,269,4.0,4.0,92,0.00,,,0.02,0.0,meteohub,2013-04-20 09:02:00,
2013-04-20 05:07:00,73.8,71.2,29.98,West,281,1.0,5.0,92,0.00,,,0.02,0.0,meteohub,2013-04-20 09:07:00,
2013-04-20 05:12:00,73.6,71.1,29.98,West,281,1.0,5.0,92,0.00,,,0.02,0.0,meteohub,2013-04-20 09:12:00,
2013-04-20 05:17:00,73.6,71.4,29.98,NW,305,1.0,5.0,93,0.00,,,0.02,0.0,meteohub,2013-04-20 09:17:00,
2013-04-20 05:22:00,73.6,71.4,29.99,NW,305,0.0,3.0,93,0.00,,,0.02,0.0,meteohub,2013-04-20 09:22:00,
2013-04-20 05:27:00,73.6,71.4,29.98,NW,305,0.0,3.0,93,0.00,,,0.02,0.0,meteohub,2013-04-20 09:27:00,
2013-04-20 05:32:00,73.6,71.4,29.98,WNW,290,0.0,3.0,93,0.00,,,0.02,0.0,meteohub,2013-04-20 09:32:00,
2013-04-20 05:37:00,73.8,71.6,29.98,WNW,290,0.0,1.0,93,0.00,,,0.02,0.0,meteohub,2013-04-20 09:37:00,
2013-04-20 05:42:00,73.8,71.6,29.98,WNW,291,0.0,1.0,93,0.00,,,0.02,0.0,meteohub,2013-04-20 09:42:00,
2013-04-20 05:47:00,73.6,71.4,29.98,WNW,290,1.0,1.0,93,0.00,,,0.02,0.0,meteohub,2013-04-20 09:47:00,
2013-04-20 05:52:00,73.6,71.8,29.97,WNW,291,0.0,2.0,94,0.00,,,0.02,0.0,meteohub,2013-04-20 09:52:00,
2013-04-20 05:57:00,73.4,71.2,29.97,WNW,291,0.0,2.0,93,0.00,,,0.02,0.0,meteohub,2013-04-20 09:57:00,
2013-04-20 06:02:00,73.6,71.8,29.98,WNW,291,0.0,2.0,94,0.00,,,0.02,0.0,meteohub,2013-04-20 10:02:00,
2013-04-20 06:07:00,73.2,71.4,29.98,NW,304,0.0,2.0,94,0.00,,,0.02,0.0,meteohub,2013-04-20 10:07:00,
2013-04-20 06:12:00,73.2,71.4,29.98,NW,304,3.0,3.0,94,0.00,,,0.02,0.0,meteohub,2013-04-20 10:12:00,
2013-04-20 06:17:00,73.2,71.4,29.98,NW,304,0.0,3.0,94,0.00,,,0.02,0.0,meteohub,2013-04-20 10:17:00,
2013-04-20 06:22:00,73.4,71.6,29.98,NW,304,0.0,3.0,94,0.00,,,0.02,0.0,meteohub,2013-04-20 10:22:00,
2013-04-20 06:27:00,73.2,71.4,29.98,NW,304,0.0,3.0,94,0.00,,,0.02,0.0,meteohub,2013-04-20 10:27:00,
2013-04-20 06:32:00,73.0,71.2,29.98,NW,304,0.0,0.0,94,0.00,,,0.02,0.0,meteohub,2013-04-20 10:32:00,
2013-04-20 06:37:00,72.9,71.4,29.98,NW,304,0.0,0.0,95,0.00,,,0.02,0.0,meteohub,2013-04-20 10:37:00,
2013-04-20 06:42:00,72.9,71.4,29.98,NW,304,0.0,0.0,95,0.00,,,0.02,0.0,meteohub,2013-04-20 10:42:00,
2013-04-20 06:47:00,73.0,71.6,29.98,NW,304,0.0,0.0,95,0.00,,,0.02,0.0,meteohub,2013-04-20 10:47:00,
2013-04-20 06:52:00,73.0,71.6,29.98,NW,304,0.0,0.0,95,0.00,,,0.02,0.0,meteohub,2013-04-20 10:52:00,
2013-04-20 06:57:00,72.9,71.4,29.99,NW,304,0.0,0.0,95,0.00,,,0.02,0.0,meteohub,2013-04-20 10:57:00,
2013-04-20 07:02:00,72.9,71.4,29.99,NW,304,0.0,0.0,95,0.00,,,0.02,5.0,meteohub,2013-04-20 11:02:00,
2013-04-20 07:07:00,72.5,71.1,29.99,NW,304,0.0,0.0,95,0.00,,,0.02,5.0,meteohub,2013-04-20 11:07:00,
2013-04-20 07:12:00,72.3,71.1,29.99,NW,304,1.0,0.0,96,0.00,,,0.02,7.0,meteohub,2013-04-20 11:12:00,
2013-04-20 07:17:00,72.5,71.2,29.99,NW,304,0.0,2.0,96,0.00,,,0.02,9.0,meteohub,2013-04-20 11:17:00,
2013-04-20 07:22:00,72.7,71.4,30.00,NW,304,0.0,2.0,96,0.00,,,0.02,14.0,meteohub,2013-04-20 11:22:00,
2013-04-20 07:27:00,72.7,71.4,30.00,NW,304,0.0,2.0,96,0.00,,,0.02,19.0,meteohub,2013-04-20 11:27:00,
2013-04-20 07:32:00,72.9,71.6,30.00,NW,304,0.0,0.0,96,0.00,,,0.02,28.0,meteohub,2013-04-20 11:32:00,
2013-04-20 07:37:00,73.0,71.8,30.00,NNW,331,0.0,0.0,96,0.00,,,0.02,86.0,meteohub,2013-04-20 11:37:00,
2013-04-20 07:42:00,73.8,72.9,30.00,NNW,331,0.0,1.0,97,0.00,,,0.02,88.0,meteohub,2013-04-20 11:42:00,
2013-04-20 07:47:00,73.9,72.7,30.00,NNW,330,0.0,1.0,96,0.00,,,0.02,111.0,meteohub,2013-04-20 11:47:00,
2013-04-20 07:52:00,74.7,73.4,30.00,NNW,331,0.0,0.0,96,0.00,,,0.02,132.0,meteohub,2013-04-20 11:52:00,
2013-04-20 07:57:00,75.0,73.8,30.00,NNW,331,0.0,0.0,96,0.00,,,0.02,146.0,meteohub,2013-04-20 11:57:00,
2013-04-20 08:02:00,75.7,74.1,30.00,NNW,332,0.0,0.0,95,0.00,,,0.02,174.0,meteohub,2013-04-20 12:02:00,
2013-04-20 08:07:00,76.8,75.0,30.01,NNW,332,0.0,1.0,94,0.00,,,0.02,193.0,meteohub,2013-04-20 12:07:00,
2013-04-20 08:12:00,77.5,75.0,30.01,NNW,332,0.0,2.0,92,0.00,,,0.02,214.0,meteohub,2013-04-20 12:12:00,
2013-04-20 08:17:00,78.1,75.2,30.01,NNW,332,1.0,2.0,91,0.00,,,0.02,232.0,meteohub,2013-04-20 12:17:00,
2013-04-20 08:22:00,79.0,75.2,30.01,NNW,332,0.0,3.0,88,0.00,,,0.02,251.0,meteohub,2013-04-20 12:22:00,
2013-04-20 08:27:00,79.2,75.0,30.01,NNW,332,0.0,3.0,87,0.00,,,0.02,265.0,meteohub,2013-04-20 12:27:00,
2013-04-20 08:32:00,79.7,74.8,30.01,NNW,333,0.0,3.0,85,0.00,,,0.02,199.0,meteohub,2013-04-20 12:32:00,
2013-04-20 08:37:00,80.1,75.2,30.01,NNW,333,0.0,2.0,85,0.00,,,0.02,279.0,meteohub,2013-04-20 12:37:00,
2013-04-20 08:42:00,80.2,75.0,30.00,NNW,336,0.0,2.0,84,0.00,,,0.02,304.0,meteohub,2013-04-20 12:42:00,
2013-04-20 08:47:00,79.5,75.0,30.01,WNW,301,5.0,5.0,86,0.00,,,0.02,315.0,meteohub,2013-04-20 12:47:00,
2013-04-20 08:52:00,79.9,75.0,30.01,WNW,291,1.0,5.0,85,0.00,,,0.02,332.0,meteohub,2013-04-20 12:52:00,
2013-04-20 08:57:00,79.3,74.5,30.00,SW,230,4.0,5.0,85,0.00,,,0.02,353.0,meteohub,2013-04-20 12:57:00,
2013-04-20 09:02:00,79.2,75.0,30.00,WSW,248,2.0,5.0,87,0.00,,,0.02,378.0,meteohub,2013-04-20 13:02:00,
2013-04-20 09:07:00,79.5,75.6,30.00,WSW,247,3.0,5.0,88,0.00,,,0.02,403.0,meteohub,2013-04-20 13:07:00,
2013-04-20 09:12:00,79.5,75.4,30.00,SW,236,5.0,7.0,87,0.00,,,0.02,432.0,meteohub,2013-04-20 13:12:00,
2013-04-20 09:17:00,79.9,75.7,30.00,SSW,211,4.0,7.0,87,0.00,,,0.02,490.0,meteohub,2013-04-20 13:17:00,
2013-04-20 09:22:00,79.9,75.4,30.00,SW,230,8.0,8.0,86,0.00,,,0.02,519.0,meteohub,2013-04-20 13:22:00,
2013-04-20 09:27:00,80.1,75.6,30.00,SSW,206,5.0,11.0,86,0.00,,,0.02,234.0,meteohub,2013-04-20 13:27:00,
2013-04-20 09:32:00,80.2,75.4,30.00,WSW,248,5.0,11.0,85,0.00,,,0.02,527.0,meteohub,2013-04-20 13:32:00,
2013-04-20 09:37:00,80.4,75.2,30.00,South,191,5.0,11.0,84,0.00,,,0.02,411.0,meteohub,2013-04-20 13:37:00,
2013-04-20 09:42:00,80.8,75.6,30.00,SW,219,6.0,9.0,84,0.00,,,0.02,696.0,meteohub,2013-04-20 13:42:00,
2013-04-20 09:47:00,81.1,75.6,30.00,WSW,246,2.0,8.0,83,0.00,,,0.02,534.0,meteohub,2013-04-20 13:47:00,
2013-04-20 09:52:00,81.0,75.4,30.00,South,182,4.0,8.0,83,0.00,,,0.02,436.0,meteohub,2013-04-20 13:52:00,
2013-04-20 09:57:00,81.0,75.0,30.01,SSW,213,1.0,8.0,82,0.00,,,0.02,257.0,meteohub,2013-04-20 13:57:00,
2013-04-20 10:02:00,81.0,75.0,30.01,SSW,194,4.0,8.0,82,0.00,,,0.02,197.0,meteohub,2013-04-20 14:02:00,
2013-04-20 10:07:00,81.0,75.0,30.01,SSW,208,3.0,8.0,82,0.00,,,0.02,311.0,meteohub,2013-04-20 14:07:00,
2013-04-20 10:12:00,81.7,75.6,30.01,SSW,211,5.0,8.0,82,0.00,,,0.02,564.0,meteohub,2013-04-20 14:12:00,
2013-04-20 10:17:00,81.5,75.0,30.02,SW,219,3.0,8.0,81,0.00,,,0.02,366.0,meteohub,2013-04-20 14:17:00,
2013-04-20 10:22:00,82.0,75.9,30.02,SSW,207,4.0,8.0,82,0.00,,,0.02,325.0,meteohub,2013-04-20 14:22:00,
2013-04-20 10:27:00,82.0,75.2,30.02,WSW,240,7.0,8.0,80,0.00,,,0.02,211.0,meteohub,2013-04-20 14:27:00,
2013-04-20 10:32:00,81.9,75.4,30.03,WSW,239,6.0,8.0,81,0.00,,,0.02,285.0,meteohub,2013-04-20 14:32:00,
2013-04-20 10:37:00,81.9,75.4,30.03,WSW,257,0.0,8.0,81,0.00,,,0.02,260.0,meteohub,2013-04-20 14:37:00,
2013-04-20 10:42:00,82.8,75.2,30.03,WSW,240,5.0,8.0,78,0.00,,,0.02,225.0,meteohub,2013-04-20 14:42:00,
2013-04-20 10:47:00,82.6,74.7,30.03,WNW,286,3.0,7.0,77,0.00,,,0.02,227.0,meteohub,2013-04-20 14:47:00,
2013-04-20 10:52:00,83.8,75.9,30.03,West,263,6.0,7.0,77,0.00,,,0.02,881.0,meteohub,2013-04-20 14:52:00,
2013-04-20 10:57:00,83.8,73.8,30.04,WSW,246,6.0,7.0,72,0.00,,,0.02,814.0,meteohub,2013-04-20 14:57:00,
2013-04-20 11:02:00,84.4,74.3,30.03,West,277,2.0,8.0,72,0.00,,,0.02,810.0,meteohub,2013-04-20 15:02:00,
2013-04-20 11:07:00,84.4,72.7,30.03,South,188,4.0,8.0,68,0.00,,,0.02,830.0,meteohub,2013-04-20 15:07:00,
2013-04-20 11:12:00,83.8,73.0,30.03,SSW,196,5.0,8.0,70,0.00,,,0.02,851.0,meteohub,2013-04-20 15:12:00,
2013-04-20 11:17:00,84.4,73.6,30.03,South,178,1.0,7.0,70,0.00,,,0.02,946.0,meteohub,2013-04-20 15:17:00,
2013-04-20 11:22:00,84.7,72.5,30.03,SSW,205,5.0,7.0,67,0.00,,,0.02,921.0,meteohub,2013-04-20 15:22:00,
2013-04-20 11:27:00,84.4,71.8,30.03,SW,229,2.0,7.0,66,0.00,,,0.02,969.0,meteohub,2013-04-20 15:27:00,
2013-04-20 11:33:00,86.4,73.2,30.03,WSW,239,5.0,7.0,65,0.00,,,0.02,974.0,meteohub,2013-04-20 15:33:00,
2013-04-20 11:38:00,86.0,74.1,30.04,WNW,299,3.0,7.0,68,0.00,,,0.02,357.0,meteohub,2013-04-20 15:38:00,
2013-04-20 11:43:00,88.0,75.2,30.03,West,277,6.0,10.0,66,0.00,,,0.02,984.0,meteohub,2013-04-20 15:43:00,
2013-04-20 11:48:00,88.5,74.3,30.03,WNW,288,3.0,10.0,63,0.00,,,0.02,304.0,meteohub,2013-04-20 15:48:00,
2013-04-20 11:53:00,87.4,73.8,30.03,NW,323,2.0,10.0,64,0.00,,,0.02,441.0,meteohub,2013-04-20 15:53:00,
2013-04-20 11:58:00,86.5,73.8,30.03,WNW,296,3.0,7.0,66,0.00,,,0.02,610.0,meteohub,2013-04-20 15:58:00,
2013-04-20 12:03:00,88.0,73.4,30.03,West,259,5.0,6.0,62,0.00,,,0.02,795.0,meteohub,2013-04-20 16:03:00,
2013-04-20 12:08:00,87.1,72.5,30.03,WNW,288,2.0,6.0,62,0.00,,,0.02,963.0,meteohub,2013-04-20 16:08:00,
2013-04-20 12:13:00,86.5,71.4,30.03,West,273,0.0,6.0,61,0.00,,,0.02,443.0,meteohub,2013-04-20 16:13:00,
2013-04-20 12:18:00,88.2,71.1,30.02,WSW,252,4.0,6.0,57,0.00,,,0.02,944.0,meteohub,2013-04-20 16:18:00,
2013-04-20 12:23:00,89.8,72.5,30.02,North,355,4.0,6.0,57,0.00,,,0.02,981.0,meteohub,2013-04-20 16:23:00,
2013-04-20 12:28:00,90.3,70.9,30.02,NNE,17,1.0,6.0,53,0.00,,,0.02,828.0,meteohub,2013-04-20 16:28:00,
2013-04-20 12:33:00,88.0,70.9,30.01,ENE,58,0.0,6.0,57,0.00,,,0.02,255.0,meteohub,2013-04-20 16:33:00,
2013-04-20 12:38:00,88.2,72.0,30.01,NW,305,2.0,5.0,59,0.00,,,0.02,343.0,meteohub,2013-04-20 16:38:00,
2013-04-20 12:43:00,87.6,71.6,30.01,SW,222,4.0,5.0,59,0.00,,,0.02,821.0,meteohub,2013-04-20 16:43:00,
2013-04-20 12:48:00,87.3,72.1,30.01,SSW,192,0.0,5.0,61,0.00,,,0.02,914.0,meteohub,2013-04-20 16:48:00,
2013-04-20 12:53:00,86.7,70.7,30.01,South,191,6.0,6.0,59,0.00,,,0.02,1042.0,meteohub,2013-04-20 16:53:00,
2013-04-20 12:58:00,87.1,71.1,30.00,South,191,0.0,8.0,59,0.00,,,0.02,1055.0,meteohub,2013-04-20 16:58:00,
2013-04-20 13:03:00,87.4,71.8,30.00,WSW,246,2.0,8.0,60,0.00,,,0.02,1065.0,meteohub,2013-04-20 17:03:00,
2013-04-20 13:08:00,88.9,76.1,30.00,ESE,106,3.0,8.0,66,0.00,,,0.02,1065.0,meteohub,2013-04-20 17:08:00,
2013-04-20 13:13:00,86.5,74.7,30.00,ENE,59,5.0,8.0,68,0.00,,,0.02,454.0,meteohub,2013-04-20 17:13:00,
2013-04-20 13:18:00,86.7,74.8,30.00,East,96,6.0,10.0,68,0.00,,,0.02,325.0,meteohub,2013-04-20 17:18:00,
2013-04-20 13:23:00,85.6,74.3,30.00,East,92,6.0,10.0,69,0.00,,,0.02,241.0,meteohub,2013-04-20 17:23:00,
2013-04-20 13:28:00,85.8,74.8,30.00,East,96,6.0,10.0,70,0.00,,,0.02,241.0,meteohub,2013-04-20 17:28:00,
2013-04-20 13:33:00,84.9,74.8,30.00,East,90,1.0,10.0,72,0.00,,,0.02,267.0,meteohub,2013-04-20 17:33:00,
2013-04-20 13:38:00,86.5,75.2,30.00,East,84,1.0,8.0,69,0.00,,,0.02,1053.0,meteohub,2013-04-20 17:38:00,
2013-04-20 13:43:00,86.4,74.5,30.00,SSW,195,5.0,8.0,68,0.00,,,0.02,253.0,meteohub,2013-04-20 17:43:00,
2013-04-20 13:48:00,85.6,73.0,30.00,South,180,0.0,7.0,66,0.00,,,0.02,271.0,meteohub,2013-04-20 17:48:00,
2013-04-20 13:53:00,85.8,72.7,29.99,South,189,4.0,7.0,65,0.00,,,0.02,338.0,meteohub,2013-04-20 17:53:00,
2013-04-20 13:58:00,86.0,72.3,29.99,SE,126,4.0,7.0,64,0.00,,,0.02,316.0,meteohub,2013-04-20 17:58:00,
2013-04-20 14:03:00,86.5,72.5,29.99,SSE,163,3.0,5.0,63,0.00,,,0.02,371.0,meteohub,2013-04-20 18:03:00,
2013-04-20 14:08:00,86.5,72.5,29.99,SSE,163,3.0,5.0,63,0.00,,,0.02,269.0,meteohub,2013-04-20 18:08:00,
2013-04-20 14:13:00,86.9,72.9,29.99,South,174,0.0,4.0,63,0.00,,,0.02,731.0,meteohub,2013-04-20 18:13:00,
2013-04-20 14:18:00,87.6,73.0,29.98,South,175,0.0,4.0,62,0.00,,,0.02,1011.0,meteohub,2013-04-20 18:18:00,
2013-04-20 14:23:00,87.4,74.3,29.98,South,184,3.0,4.0,65,0.00,,,0.02,881.0,meteohub,2013-04-20 18:23:00,
2013-04-20 14:28:00,88.0,74.3,29.98,ESE,112,5.0,6.0,64,0.00,,,0.02,1083.0,meteohub,2013-04-20 18:28:00,
2013-04-20 14:33:00,87.6,73.4,29.98,East,99,3.0,10.0,63,0.00,,,0.02,360.0,meteohub,2013-04-20 18:33:00,
2013-04-20 14:38:00,87.3,74.5,29.98,SE,131,5.0,10.0,66,0.00,,,0.02,246.0,meteohub,2013-04-20 18:38:00,
2013-04-20 14:43:00,86.0,74.7,29.97,ESE,102,2.0,10.0,69,0.00,,,0.02,199.0,meteohub,2013-04-20 18:43:00,
2013-04-20 14:48:00,85.8,74.8,29.97,East,96,8.0,10.0,70,0.00,,,0.02,392.0,meteohub,2013-04-20 18:48:00,
2013-04-20 14:53:00,86.2,74.8,29.97,SSE,151,6.0,9.0,69,0.00,,,0.02,315.0,meteohub,2013-04-20 18:53:00,
2013-04-20 14:58:00,85.8,74.8,29.97,ESE,122,5.0,10.0,70,0.00,,,0.02,325.0,meteohub,2013-04-20 18:58:00,
2013-04-20 15:03:00,85.8,74.5,29.97,ESE,105,8.0,10.0,69,0.00,,,0.02,302.0,meteohub,2013-04-20 19:03:00,
2013-04-20 15:08:00,85.6,74.3,29.96,ESE,109,3.0,10.0,69,0.00,,,0.02,243.0,meteohub,2013-04-20 19:08:00,
2013-04-20 15:13:00,85.6,74.7,29.96,ESE,115,5.0,10.0,70,0.00,,,0.02,162.0,meteohub,2013-04-20 19:13:00,
2013-04-20 15:18:00,85.3,74.8,29.96,SE,135,1.0,13.0,71,0.00,,,0.02,128.0,meteohub,2013-04-20 19:18:00,
2013-04-20 15:24:00,84.9,74.1,29.96,SE,126,3.0,13.0,70,0.00,,,0.02,146.0,meteohub,2013-04-20 19:24:00,
2013-04-20 15:29:00,84.9,74.5,29.96,SSE,159,3.0,13.0,71,0.00,,,0.02,302.0,meteohub,2013-04-20 19:29:00,
2013-04-20 15:34:00,86.0,75.0,29.96,East,101,6.0,10.0,70,0.00,,,0.02,253.0,meteohub,2013-04-20 19:34:00,
2013-04-20 15:39:00,85.3,74.3,29.96,ENE,65,5.0,10.0,70,0.00,,,0.02,221.0,meteohub,2013-04-20 19:39:00,
2013-04-20 15:44:00,85.6,74.7,29.96,NE,45,4.0,10.0,70,0.00,,,0.02,185.0,meteohub,2013-04-20 19:44:00,
2013-04-20 15:49:00,85.5,74.5,29.96,East,95,9.0,10.0,70,0.00,,,0.02,148.0,meteohub,2013-04-20 19:49:00,
2013-04-20 15:54:00,84.7,73.9,29.96,East,85,9.0,9.0,70,0.00,,,0.02,114.0,meteohub,2013-04-20 19:54:00,
2013-04-20 15:59:00,84.2,73.8,29.96,East,90,9.0,13.0,71,0.00,,,0.02,81.0,meteohub,2013-04-20 19:59:00,
2013-04-20 16:04:00,83.7,73.2,29.96,NNE,24,8.0,15.0,71,0.00,,,0.02,56.0,meteohub,2013-04-20 20:04:00,
2013-04-20 16:09:00,82.6,72.7,29.96,NNE,28,12.0,15.0,72,0.00,,,0.02,35.0,meteohub,2013-04-20 20:09:00,
2013-04-20 16:14:00,81.1,72.5,29.96,North,11,12.0,19.0,75,0.00,,,0.02,46.0,meteohub,2013-04-20 20:14:00,
2013-04-20 16:19:00,80.1,72.1,29.97,North,355,14.0,19.0,77,0.00,,,0.02,53.0,meteohub,2013-04-20 20:19:00,
2013-04-20 16:24:00,78.1,71.4,29.97,NNE,13,13.0,23.0,80,0.00,,,0.02,62.0,meteohub,2013-04-20 20:24:00,
2013-04-20 16:29:00,77.2,71.6,29.97,NE,36,13.0,24.0,83,0.00,,,0.02,70.0,meteohub,2013-04-20 20:29:00,
2013-04-20 16:34:00,76.3,71.1,29.97,NNE,15,9.0,24.0,84,0.00,,,0.02,81.0,meteohub,2013-04-20 20:34:00,
2013-04-20 16:39:00,75.7,70.9,29.97,NNE,13,12.0,23.0,85,0.00,,,0.02,65.0,meteohub,2013-04-20 20:39:00,
2013-04-20 16:44:00,75.4,70.9,29.98,NNE,12,7.0,22.0,86,0.00,,,0.02,65.0,meteohub,2013-04-20 20:44:00,
2013-04-20 16:49:00,75.6,71.8,29.96,NNE,24,13.0,22.0,88,0.00,,,0.02,54.0,meteohub,2013-04-20 20:49:00,
2013-04-20 16:54:00,75.4,71.2,29.98,NE,42,17.0,22.0,87,0.00,,,0.02,21.0,meteohub,2013-04-20 20:54:00,